This is the latest recevied weather packets stored in our database for station/object AH6GR. If no packets are shown the sender has not sent any weather packets the latest 10 day(s).
| Time | Temp. | Humidity | Pressure | Rain* | Wind** | Luminosity | Snow |
|---|---|---|---|---|---|---|---|
| 1788141630 | 79° F | 71% | 760.6 mmHg | 0 in | - | - | - |
| 1788140783 | 78° F | 75% | 760.6 mmHg | 0 in | - | - | - |
| 1788139845 | 77° F | 79% | 760.6 mmHg | 0 in | - | - | - |
| 1788138916 | 77° F | 77% | 760.6 mmHg | 0 in | - | - | - |
| 1788138066 | 76° F | 80% | 760.9 mmHg | 0 in | - | - | - |
| 1788137123 | 77° F | 79% | 761 mmHg | 0 in | - | - | - |
| 1788136264 | 77° F | 79% | 761.2 mmHg | 0 in | - | - | - |
| 1788135334 | 77° F | 79% | 761.3 mmHg | 0 in | - | - | - |
| 1788134403 | 77° F | 80% | 761.5 mmHg | 0 in | - | - | - |
| 1788133545 | 78° F | 79% | 761.7 mmHg | 0 in | - | - | - |
| 1788132612 | 79° F | 77% | 761.7 mmHg | 0 in | - | - | - |
| 1788131755 | 77° F | 79% | 761.9 mmHg | 0 in | - | - | - |
| 1788130825 | 78° F | 79% | 761.9 mmHg | 0 in | - | - | - |
| 1788129902 | 78° F | 78% | 762.1 mmHg | 0 in | - | - | - |
| 1788129044 | 79° F | 78% | 762.1 mmHg | 0 in | - | - | - |
| 1788128110 | 79° F | 75% | 762.1 mmHg | 0 in | - | - | - |
| 1788127248 | 79° F | 73% | 762.1 mmHg | 0 in | - | - | - |
| 1788126330 | 79° F | 70% | 762.1 mmHg | 0 in | - | - | - |
| 1788125405 | 79° F | 72% | 762.2 mmHg | 0 in | - | - | - |
| 1788124552 | 79° F | 74% | 762.2 mmHg | 0 in | - | - | - |
| 1788123614 | 79° F | 76% | 762.3 mmHg | 0 in | - | - | - |
| 1788122751 | 78° F | 77% | 762.3 mmHg | 0 in | - | - | - |
| 1788121826 | 78° F | 73% | 762.4 mmHg | 0 in | - | - | - |
| 1788120970 | 78° F | 79% | 762.4 mmHg | 0 in | - | - | - |
| 1788120041 | 78° F | 78% | 762.4 mmHg | 0 in | - | - | - |
* Rain latest hour (hover to see other rain measurements)
** Current wind speed in m/s (hover to see current wind gust speed)